• Join FlightAware (Why Join?)
  • Login
  • US Flag 
09:54PM EDT


 

Airport Tracker/Info


-or-


 

Live Flight TrackerFlight Track Log ✈ EJA922 ✈ 26-Jun-2013 ✈ KMKC - KOMA

Flight Track Log - Related Links

Times and Time Zones

All times are in EDT time to prevent confusion due to time zone crossing. See the EJA922 flight status page for this flight to view local times or setup timezone preferences in your user account.

Time Position Orientation Groundspeed Altitude Reporting Facility
EDT Latitude Longitude Course Direction KTS MPH feet Rate Location/Type
06:54PM 39.1333 -94.5833 23° Northeast 176 203 1,400  Level Kansas City TRACON
06:55PM 39.1769 -94.5592 23° Northeast 222 255 4,000 1,980 Climbing Kansas City Center
06:56PM 39.2342 -94.5022 38° Northeast 273 314 5,000 2,160 Climbing Kansas City Center
06:57PM 39.3081 -94.4878 North 245 282 8,500 2,580 Climbing Kansas City Center
06:58PM 39.3694 -94.5297 332° Northwest 262 302 10,400 1,440 Climbing Kansas City Center
06:59PM 39.4611 -94.5914 333° Northwest 334 384 11,600 1,020 Climbing Kansas City Center
07:00PM 39.5503 -94.6519 332° Northwest 375 432 12,600 1,080 Climbing Kansas City Center
07:01PM 39.6603 -94.7250 333° Northwest 397 457 13,900 660 Climbing Kansas City Center
07:02PM 39.7575 -94.7914 332° Northwest 410 472 14,000  Climbing Kansas City Center
07:03PM 39.8717 -94.8686 333° Northwest 413 475 14,000  Level Kansas City Center
07:04PM 39.9708 -94.9283 335° Northwest 413 475 14,000  Level Kansas City Center
07:05PM 40.0972 -94.9553 351° North 413 475 14,000  Level Kansas City Center
07:06PM 40.2064 -94.9761 352° North 413 475 14,000  Level Kansas City Center
07:07PM 40.3333 -94.9969 353° North 411 473 14,000  Level Kansas City Center
07:09PM 40.4422 -95.0189 351° North 412 474 14,000  Level Kansas City Center
07:09PM 40.5750 -95.0300 356° North 414 476 14,000  Level Minneapolis Center
07:10PM 40.6517 -95.0478 350° North 411 473 14,000  Level Minneapolis Center
07:11PM 40.7081 -95.0708 343° North 412 474 14,000 -480 Level Minneapolis Center
07:12PM 40.7950 -95.1186 337° Northwest 381 438 13,200 -840 Descending Minneapolis Center
07:13PM 40.8586 -95.2192 310° West 364 419 12,300 -1,020 Descending Minneapolis Center
07:14PM 40.9225 -95.3264 308° West 367 422 11,200 -1,260 Descending Minneapolis Center
07:15PM 40.9833 -95.4278 308° West 306 352 9,800 -1,440 Descending Minneapolis Center
07:16PM 41.0239 -95.5336 297° West 248 285 7,900 -1,500 Descending Minneapolis Center
07:17PM 41.0417 -95.6033 289° West 265 305 6,700 -1,560 Descending Minneapolis Center
07:18PM 41.0886 -95.6914 305° West 259 298 4,800 -1,200 Descending Minneapolis Center
07:19PM 41.1469 -95.7428 326° Northwest 186 214 4,000 -660 Descending Minneapolis Center
07:20PM 41.1872 -95.7797 325° Northwest 173 199 3,500 -780 Descending Minneapolis Center
07:21PM 41.2275 -95.8219 322° Northwest 188 216 2,500 -960 Descending Minneapolis Center
07:22PM 41.2722 -95.8639 325° Northwest 177 204 1,600 -720 Descending Minneapolis Center
07:23PM 41.3047 -95.8933 326° Northwest 167 192 1,000 -540 Descending Minneapolis Center
07:25PM 41.3000 -95.8833 323° Northwest  Level FlightAware Approximate